CW9203 Weather Reports


Display with metric or nautical units.
time (UTC)temp
F
wind
direction
speed
MPH
gust
MPH
rain 1hr
in
rain 24hr
in
rain mn
in
humidity
%
barometer
mb
20260902160806 53 278 0.0 1.0 0.01 0.02 0.01 4 1021.6
20260902160304 53 277 0.0 0.0 0.01 0.02 0.01 4 1021.6
20260902154305 54 277 0.0 1.0 0.00 0.01 0.00 4 1021.7
20260902153805 54 277 1.0 3.0 0.00 0.01 0.00 4 1021.8
20260902153304 54 254 2.0 3.0 0.00 0.01 0.00 4 1021.9
20260902152308 54 250 3.0 5.0 0.00 0.01 0.00 4 1022.0
20260902151805 54 251 2.0 3.0 0.00 0.01 0.00 4 1022.0
20260902150804 54 253 1.0 3.0 0.00 0.01 0.00 4 1022.0
20260902150305 54 251 1.0 2.0 0.00 0.01 0.00 4 1022.0
20260902145306 54 269 1.0 1.0 0.00 0.01 0.00 4 1022.0
20260902141306 54 274 1.0 3.0 0.00 0.01 0.00 4 1022.3
20260902140805 54 279 1.0 1.0 0.00 0.01 0.00 4 1022.2
20260902133805 54 265 0.0 1.0 0.00 0.01 0.00 4 1022.2
20260902133306 55 266 0.0 1.0 0.00 0.01 0.00 4 1022.2
20260902130804 55 268 1.0 3.0 0.00 0.01 0.00 4 1021.9
20260902125306 55 255 1.0 2.0 0.00 0.01 0.00 4 1021.8
20260902124305 55 255 1.0 2.0 0.00 0.01 0.00 4 1021.8
20260902122804 55 245 2.0 5.0 0.00 0.01 0.00 4 1021.7
20260902121805 55 266 2.0 5.0 0.00 0.01 0.00 4 1021.8
20260902121304 55 256 3.0 5.0 0.00 0.01 0.00 4 1021.7
20260902120305 55 251 2.0 5.0 0.00 0.01 0.00 4 1021.6
20260902114305 55 254 2.0 3.0 0.00 0.01 0.01 4 1021.7
20260902113806 55 264 2.0 5.0 0.00 0.01 0.01 4 1021.6
20260902112306 55 263 2.0 5.0 0.00 0.01 0.01 4 1021.7
20260902111306 55 257 1.0 3.0 0.00 0.01 0.01 4 1021.7
20260902110306 54 261 1.0 2.0 0.00 0.01 0.01 4 1021.8
20260902105805 55 266 0.0 1.0 0.00 0.01 0.01 4 1021.8
20260902104805 55 273 0.0 2.0 0.00 0.01 0.01 4 1021.7
20260902104305 55 273 1.0 2.0 0.00 0.01 0.01 4 1021.8
20260902102805 55 277 0.0 0.0 0.00 0.01 0.01 4 1021.8
20260902101304 55 277 0.0 0.0 0.01 0.01 0.01 4 1021.9
20260902093807 56 287 1.0 3.0 0.01 0.01 0.01 4 1021.9
20260902093305 56 260 1.0 2.0 0.01 0.01 0.01 4 1021.8
20260902092305 56 241 3.0 6.0 0.01 0.01 0.01 4 1021.7
20260902090806 56 288 2.0 3.0 0.00 0.00 0.00 4 1021.6
20260902090305 56 256 3.0 6.0 0.00 0.00 0.00 4 1021.5
20260902084806 56 252 1.0 3.0 0.00 0.00 0.00 4 1021.4
20260902083805 56 277 0.0 1.0 0.00 0.00 0.00 4 1021.4
20260902080307 57 243 1.0 3.0 0.00 0.00 0.00 4 1021.6
20260902074805 57 250 2.0 8.0 0.00 0.00 0.00 4 1021.5
20260902073805 57 249 1.0 6.0 0.00 0.00 0.00 4 1021.5
20260902071805 56 264 3.0 5.0 0.00 0.00 0.00 4 1021.4
20260902070805 57 227 3.0 9.0 0.00 0.00 0.00 4 1021.4
20260902070304 57 257 2.0 5.0 0.00 0.00 0.00 4 1021.4
20260902065306 56 264 2.0 5.0 0.00 0.00 0.00 4 1021.4
20260902064804 56 213 2.0 6.0 0.00 0.00 0.00 4 1021.4
20260902063804 56 243 4.0 8.0 0.00 0.00 0.00 4 1021.3
20260902063304 56 231 4.0 9.0 0.00 0.00 0.00 4 1021.2
20260902062805 56 251 3.0 6.0 0.00 0.00 0.00 4 1021.1
20260902061804 56 247 2.0 5.0 0.00 0.00 0.00 4 1021.0
20260902060804 56 255 3.0 6.0 0.00 0.00 0.00 4 1020.9
20260902054805 55 234 6.0 14.0 0.00 0.00 0.00 4 1021.0
20260902054305 55 242 6.0 14.0 0.00 0.00 0.00 4 1021.0
20260902053804 56 239 9.0 17.0 0.00 0.00 0.00 4 1021.0
20260902052804 57 244 9.0 16.0 0.00 0.00 0.00 22 1020.9
20260902051806 58 245 7.0 16.0 0.00 0.00 0.00 34 1020.7
20260902051304 58 238 5.0 13.0 0.00 0.00 0.00 38 1020.7
20260902050804 59 231 6.0 15.0 0.00 0.01 0.00 40 1020.7
20260902050305 59 223 8.0 14.0 0.00 0.01 0.00 43 1020.8
20260902045805 59 233 5.0 14.0 0.00 0.02 0.00 45 1020.8
20260902044305 60 258 7.0 14.0 0.00 0.02 0.00 51 1020.7
20260902043804 60 230 10.0 22.0 0.00 0.02 0.00 51 1020.7
20260902043304 60 245 3.0 12.0 0.00 0.02 0.00 48 1020.7
20260902042804 60 229 6.0 12.0 0.00 0.02 0.00 48 1020.7
20260902042308 60 257 7.0 15.0 0.00 0.02 0.00 43 1020.6
20260902041805 59 233 6.0 13.0 0.00 0.02 0.00 34 1020.7
20260902041304 59 231 11.0 18.0 0.00 0.02 0.00 44 1020.7
20260902040804 60 249 7.0 10.0 0.00 0.02 0.00 50 1020.7
20260902040304 60 241 12.0 17.0 0.00 0.02 0.00 56 1020.7
20260902034805 61 248 7.0 12.0 0.00 0.02 0.00 51 1021.0
20260902033805 60 237 7.0 16.0 0.00 0.03 0.00 56 1021.0
20260902032804 61 240 8.0 15.0 0.00 0.05 0.00 59 1021.1
20260902031805 62 242 8.0 14.0 0.00 0.05 0.00 62 1021.1
20260902030804 61 235 7.0 18.0 0.00 0.05 0.00 59 1021.1
20260902030305 61 251 9.0 16.0 0.00 0.05 0.00 61 1021.1
20260902025804 61 253 6.0 21.0 0.00 0.05 0.00 62 1021.1
20260902025306 61 231 9.0 21.0 0.00 0.05 0.00 61 1021.2
20260902024804 61 235 8.0 20.0 0.00 0.05 0.00 59 1021.1
20260902024305 61 228 12.0 20.0 0.00 0.05 0.00 62 1021.2
20260902022804 62 237 9.0 20.0 0.00 0.06 0.00 64 1021.1
20260902021805 63 245 7.0 17.0 0.00 0.06 0.00 64 1021.0
20260902020304 64 238 8.0 22.0 0.00 0.06 0.00 64 1021.1
20260902014305 63 233 13.0 20.0 0.00 0.06 0.00 64 1021.4
20260902012805 62 226 6.0 14.0 0.00 0.06 0.00 63 1021.8
20260902012309 62 223 6.0 13.0 0.00 0.06 0.00 64 1021.8
20260902005805 62 232 9.0 16.0 0.00 0.06 0.00 64 1021.9
20260902005306 62 235 10.0 20.0 0.00 0.06 0.00 63 1022.0
20260902003305 61 225 6.0 13.0 0.00 0.06 0.00 59 1022.4
20260902002804 61 237 7.0 15.0 0.00 0.06 0.00 59 1022.4
20260902002306 60 233 6.0 12.0 0.00 0.06 0.00 60 1022.5
20260902001304 60 218 9.0 17.0 0.00 0.06 0.00 63 1022.6
20260902000804 61 225 3.0 15.0 0.00 0.06 0.00 64 1022.6
20260902000305 61 217 6.0 13.0 0.00 0.06 0.00 64 1022.5
20260901235804 61 231 5.0 12.0 0.00 0.06 0.00 60 1022.6
20260901235307 61 214 5.0 13.0 0.00 0.06 0.00 61 1022.6
20260901234304 61 213 4.0 13.0 0.00 0.06 0.00 59 1022.6
20260901233804 60 223 6.0 13.0 0.00 0.06 0.00 57 1022.7
20260901233305 60 244 6.0 15.0 0.00 0.06 0.00 61 1022.7
20260901232804 61 228 9.0 17.0 0.00 0.06 0.00 63 1022.7
20260901230305 62 226 5.0 15.0 0.00 0.06 0.00 57 1022.6
20260901224804 60 244 9.0 16.0 0.00 0.06 0.00 48 1022.6
20260901223805 58 220 6.0 18.0 0.00 0.06 0.00 14 1022.7
20260901223305 57 226 5.0 12.0 0.00 0.06 0.00 8 1022.7
20260901222306 56 205 6.0 9.0 0.00 0.06 0.00 10 1022.8
20260901221805 56 237 6.0 14.0 0.00 0.06 0.00 11 1022.8
20260901220805 56 210 5.0 12.0 0.00 0.06 0.00 16 1022.9
20260901220307 58 242 12.0 17.0 0.00 0.06 0.00 37 1022.9
20260901214805 58 236 5.0 13.0 0.00 0.06 0.00 41 1022.8
20260901214304 58 237 6.0 14.0 0.00 0.06 0.00 38 1022.8
20260901213806 58 236 6.0 12.0 0.00 0.06 0.00 42 1022.9
20260901212805 57 239 3.0 7.0 0.00 0.06 0.00 24 1022.9
20260901212306 57 241 5.0 9.0 0.00 0.06 0.00 20 1022.9
20260901211804 56 232 5.0 10.0 0.00 0.06 0.00 8 1022.9
20260901205806 55 240 5.0 12.0 0.00 0.06 0.00 4 1023.0
20260901205306 55 248 7.0 10.0 0.00 0.06 0.00 4 1022.9
20260901204804 55 233 8.0 15.0 0.00 0.06 0.00 4 1022.9
20260901203804 55 240 5.0 12.0 0.00 0.06 0.00 4 1022.8
20260901202306 55 223 3.0 10.0 0.00 0.06 0.00 4 1022.9
20260901200805 54 237 5.0 7.0 0.00 0.06 0.00 4 1022.8
20260901200305 54 234 6.0 8.0 0.00 0.06 0.00 4 1022.7
20260901195805 54 251 5.0 12.0 0.00 0.06 0.00 4 1022.6
20260901195306 54 251 2.0 3.0 0.00 0.06 0.00 4 1022.7
20260901194805 54 238 3.0 5.0 0.00 0.06 0.00 4 1022.7
20260901194305 53 260 1.0 3.0 0.00 0.06 0.00 4 1022.7
20260901193304 52 242 2.0 6.0 0.00 0.06 0.00 4 1022.6
20260901192306 51 244 1.0 3.0 0.00 0.06 0.00 4 1022.5
20260901190305 51 251 1.0 3.0 0.00 0.06 0.00 4 1022.4
20260901184804 51 266 1.0 2.0 0.00 0.06 0.00 4 1022.3
20260901184305 50 257 1.0 2.0 0.00 0.06 0.00 4 1022.2
20260901183804 50 260 1.0 2.0 0.00 0.06 0.00 4 1022.2
20260901182805 50 249 1.0 2.0 0.00 0.07 0.00 4 1022.1
20260901181306 50 246 2.0 3.0 0.00 0.07 0.00 4 1022.1
20260901175805 50 237 2.0 2.0 0.00 0.07 0.00 4 1022.0
20260901174805 50 236 1.0 1.0 0.00 0.07 0.00 4 1021.9
20260901174305 50 234 1.0 3.0 0.00 0.07 0.00 4 1021.9
20260901173805 49 230 1.0 2.0 0.00 0.07 0.00 4 1021.9
20260901172804 49 256 1.0 3.0 0.00 0.07 0.00 4 1021.8
20260901172305 49 273 0.0 1.0 0.00 0.07 0.00 4 1021.8
20260901170805 49 270 1.0 3.0 0.00 0.07 0.00 4 1021.8
20260901170305 49 261 0.0 1.0 0.00 0.07 0.00 4 1021.7
20260901165805 49 243 0.0 1.0 0.00 0.07 0.00 4 1021.8
20260901165307 49 243 0.0 1.0 0.00 0.07 0.00 6 1021.8